sat.trackr.live / text

‹ back to catalog

STARLINK-4377

NORAD 53221 · 2022-084AJ

PAYLOAD ACTIVE UNKNOWN

§ Identity

Operator
Country
US
Launch date
2022-07-22
Launch site
AFWTR
Launch vehicle
Mass (kg)
RCS (m²)

Purposes: comms

External: N2YO · Heavens-Above · Gunter

§ Orbital elements

Epoch: 2026-09-19T22:52:13.253952Z

Period
93.91 min
Inclination
97.2840°
Eccentricity
0.0001152
Mean motion
15.33439841 rev/d
Perigee alt
464.8 km
Apogee alt
466.3 km
Semi-major
6,843.7 km
B*
3.0179e-5
RAAN
317.8246°
Arg perigee
95.1023°
Mean anomaly
265.0351°
Rev number
22,861

§ Raw data

STARLINK-43771 53221U 22084AJ  26262.95293118  .00000899  00000+0  30179-4 0  99942 53221  97.2840 317.8246 0001152  95.1023 265.0351 15.33439841228617

JSON: /api/v1/satellites/53221 · /tle

For live sub-satellite position, see the globe view (requires WebGL).

§ Visibility from observer

Set your observer location to see the next 7 days of passes ≥ 10°. The values pass through the URL so the page stays shareable.

No JS? Fill the form by hand. The geolocation button needs JavaScript.